TimeEDT,TemperatureF,Dew PointF,Humidity,Sea Level PressureIn,VisibilityMPH,Wind Direction,Wind SpeedMPH,Gust SpeedMPH,PrecipitationIn,Events,Conditions,WindDirDegrees,DateUTC
12:53 AM,77.0,71.1,82,29.98,10.0,East,6.9,-,N/A,,Clear,100,2013-10-01 04:53:00
1:53 AM,75.0,71.1,87,29.97,10.0,East,6.9,-,N/A,,Clear,100,2013-10-01 05:53:00
2:53 AM,73.9,71.1,91,29.96,10.0,ESE,5.8,-,N/A,,Clear,120,2013-10-01 06:53:00
3:53 AM,73.9,71.1,91,29.96,10.0,East,4.6,-,N/A,,Mostly Cloudy,90,2013-10-01 07:53:00
4:53 AM,73.0,71.1,93,29.96,10.0,ENE,4.6,-,N/A,,Clear,70,2013-10-01 08:53:00
5:53 AM,73.0,71.1,93,29.97,10.0,ENE,5.8,-,N/A,,Clear,70,2013-10-01 09:53:00
6:53 AM,73.0,70.0,90,29.99,10.0,ENE,4.6,-,N/A,,Clear,70,2013-10-01 10:53:00
7:53 AM,73.0,71.1,93,30.01,10.0,ENE,5.8,-,N/A,,Clear,70,2013-10-01 11:53:00
8:53 AM,77.0,72.0,84,30.02,10.0,East,8.1,-,N/A,,Clear,90,2013-10-01 12:53:00
9:53 AM,82.0,72.0,71,30.03,10.0,East,10.4,-,N/A,,Clear,100,2013-10-01 13:53:00
10:53 AM,84.0,72.0,67,30.03,10.0,ESE,13.8,-,N/A,,Clear,110,2013-10-01 14:53:00
11:53 AM,87.1,71.1,59,30.01,10.0,SE,9.2,-,N/A,,Clear,130,2013-10-01 15:53:00
12:53 PM,86.0,69.1,57,30.01,10.0,East,9.2,-,N/A,,Partly Cloudy,90,2013-10-01 16:53:00
1:53 PM,89.1,68.0,50,29.99,10.0,East,8.1,-,N/A,,Scattered Clouds,80,2013-10-01 17:53:00
2:53 PM,88.0,68.0,51,29.97,10.0,ENE,6.9,-,N/A,,Mostly Cloudy,60,2013-10-01 18:53:00
3:53 PM,90.0,66.9,46,29.95,10.0,East,10.4,-,N/A,,Clear,90,2013-10-01 19:53:00
4:53 PM,90.0,66.9,46,29.94,10.0,East,9.2,-,N/A,,Scattered Clouds,80,2013-10-01 20:53:00
5:53 PM,87.1,66.9,51,29.95,10.0,East,8.1,-,N/A,,Clear,80,2013-10-01 21:53:00
6:53 PM,86.0,68.0,55,29.96,10.0,East,5.8,-,N/A,,Clear,80,2013-10-01 22:53:00
7:53 PM,82.0,70.0,67,29.98,10.0,East,3.5,-,N/A,,Clear,100,2013-10-01 23:53:00
8:53 PM,82.0,69.1,65,30.00,10.0,East,9.2,-,N/A,,Overcast,80,2013-10-02 00:53:00
9:53 PM,80.1,71.1,74,30.02,10.0,East,9.2,-,N/A,,Partly Cloudy,80,2013-10-02 01:53:00
10:53 PM,79.0,71.1,77,30.03,10.0,East,9.2,-,N/A,,Clear,80,2013-10-02 02:53:00
11:53 PM,78.1,71.1,79,30.03,10.0,East,9.2,-,N/A,,Clear,80,2013-10-02 03:53:00